Weather in Mushak

Russia / Udmurt Republic     56°14′16″N   53°03′49″E
temp.,
°C
wind,
m/s
gust,
m/s
humid.,
%
clouds,
%
prec.,
mm/h
press.,
hPa
HPBL,
m
17 april, sat
sat1701:00+4ne511650 0.0 1027240
04:00+2nne49743 0.0 1027194
07:00+3ne410680 0.0 1028278
10:00+8ne67420 0.0 1028642
13:00+11ne56365 0.0 10271090
16:00+12nne45350 0.0 10261266
19:00+9ne34510 0.0 102574
22:00+6nne22610 0.0 102516
18 april, sun
sun1801:00+4n22700 0.0 102517
04:00+3n33760 0.0 102434
07:00+4n26765 0.0 1024168
10:00+9nne45555 0.0 1025910
13:00+11ne764987 0.0 10251745
16:00+8ne78525 0.0 10261136
19:00+6ne6104079 0.0 1027515
22:00+4ene61351100 0.0 1029630
19 april, mon
mon1901:00+2ene61352100 0.0 1030509
04:000ene61355100 0.0 1032495
07:000ene7125185 0.0 1033655
10:00+4e811331 0.0 10331359
13:00+6e89280 0.0 10331642
16:00+7e79280 0.0 10331748
19:00+5e59360 0.0 1033383
22:00+1ene411490 0.0 1034274
20 april, tue
tue2001:000e412520 0.0 1035259
04:00−1e49550 0.0 1036201
07:00+1ese48490 0.0 1036300
10:00+5ese56330 0.0 10361023
13:00+8ese56280 0.0 10351241
16:00+9ese55270 0.0 10331312
19:00+6ese36400 0.0 1032107
22:00+3ese33460 0.0 103339
21 april, wed
wed2101:00+2ese365285 0.0 103279
04:000se235623 0.0 103332
07:00+3se4105390 0.0 1032287
10:00+8se7103266 0.0 1031822
13:00+11sse7102752 0.0 10301303
16:00+13sse792593 0.0 10281449
19:00+10sse4937100 0.0 1029197
22:00+6se4104983 0.0 1029173